Regional Weather Roundup
Issued by NWS Charleston, SC

Current Version | Previous Version | Text Only | Print | Product List | Glossary Off
Versions: 1 2 3 4 5 6 7 8 9 10 11 12 13 14 15 16 17 18 19 20 21 22 23 24 25 26 27 28 29 30 31 32 33 34 35 36 37 38 39 40 41 42 43 44 45 46 47 48 49 50

000
ASUS42 KCHS 300928
RWRCHS

REGIONAL WEATHER ROUNDUP
NATIONAL WEATHER SERVICE CHARLESTON SC
500 AM EDT TUE AUG 30 2016

NOTE: "FAIR" INDICATES FEW OR NO CLOUDS BELOW 12,000 FEET WITH NO
SIGNIFICANT WEATHER AND/OR OBSTRUCTIONS TO VISIBILITY.

NOT ALL STATIONS ARE QUALITY CONTROLLED. USE DATA WITH CAUTION...
ESPECIALLY DEWPOINT OBSERVATIONS.

SCZ027-030-031-034>040-042>050-301000-
...SOUTHEAST SOUTH CAROLINA...

CITY           SKY/WX    TMP DP  RH WIND       PRES   REMARKS
N CHARLESTON   PTCLDY    75  72  90 N6        30.01F
WATERFRONT PRK   N/A     79  75  87 NE7       29.99S
MOUNT PLEASANT FAIR      73  73 100 N5        30.02S
JOHNS ISLAND   FAIR      75  75 100 CALM      30.03R
PINOPOLIS        N/A     79  73  83 NE8       29.96S
MONCKS CORNER  FAIR      72  70  94 N3        30.03S
SUMMERVILLE    FAIR      72  72 100 N3        30.04S
BEAUFORT MCAS  CLOUDY    75  74  96 N5        30.02S
BEAUFORT ARPT  PTSUNNY   75  73  94 N3        30.01R
HILTON HEAD IS CLOUDY    77  75  94 NE6       30.02R
WALTERBORO     MOSUNNY   73  73 100 N5        30.04S
ALLENDALE      FAIR      73  72  94 N5        30.02F

...SOUTHERN MIDLANDS AND PEE DEE...

CITY           SKY/WX    TMP DP  RH WIND       PRES   REMARKS
GEORGETOWN     FAIR      72  70  94 CALM      30.04R
KINGSTREE      FAIR      70  68  94 CALM      30.03F
ORANGEBURG     PTCLDY    73  72  96 CALM      30.05S
BARNWELL       NOT AVBL
AIKEN          PTSUNNY   70  70 100 CALM      30.10S
MANNING        FAIR      70  70 100 CALM      30.04S
COLUMBIA       MOCLDY    73  71  93 W5        30.05S
SUMTER         MOCLDY    73  70  89 NE3       30.03F
FLORENCE       PTCLDY    74  70  87 N6        30.05S
MYRTLE BEACH   CLEAR     73  64  73 N8        30.04S
N MYRTLE BEACH MOCLDY    73  71  93 N6        30.02R

$$

GAZ063-065-086>088-099>101-113>116-118-119-134>141-150-301000-
...SOUTHEAST GEORGIA...

CITY           SKY/WX    TMP DP  RH WIND       PRES   REMARKS
SAVANNAH ARPT  CLOUDY    75  71  87 N5        30.01S
HUNTER AAF     CLOUDY    77  77 100 VRB3      29.98S
FORT STEWART   PTCLDY    74  72  94 CALM      29.98S
STATESBORO     CLEAR     73  73  99 CALM      30.03S
SYLVANIA       NOT AVBL
CLAXTON        FAIR      73  73 100 N3        30.02S

...CSRA...CENTRAL AND FAR SOUTHEAST GEORGIA...

CITY           SKY/WX    TMP DP  RH WIND       PRES   REMARKS
THOMSON        NOT AVBL
AUGUSTA-BUSH   CLEAR     71  70  96 N3        30.04F
AUGUSTA-DANIEL CLEAR     74  71  91 N7        30.07S
SWAINSBORO     FAIR      72  70  94 NE6       30.04F
VIDALIA        CLEAR     73  73 100 NE6       30.02S
EASTMAN        FAIR      72  72 100 CALM      30.05S
HAZLEHURST     FAIR      74  74 100 CALM      30.01R
ALMA           CLEAR     73  72  96 CALM      30.00S
WAYCROSS       FOG       76  76 100 NE6       29.99F VSB 1/2
JESUP          CLOUDY    75  75 100 CALM      30.00S FOG
BAXLEY         FAIR      73  73 100 NE3       30.00S
BRUNSWICK      CLEAR     73  73 100 CALM      30.00S FOG
SAINT SIMONS   CLEAR     80  70  71 SE6       29.98S

$$

SCZ027-028-034-036>038-045-046-048>050-GAZ119-141-301000-
...LAKE AND SUPPLEMENTAL COASTAL OBSERVATIONS...

STATION/POSITION TIME  TEMP    WIND        PRES    WAVE   SWELL
                       AIR SEA DIR/SP/G            HT/PER HT/PER/DIR
                 (UTC) (F)     (DEG/KT/KT) (MB)    (FT/S) (FT/S/D)
WINYAH BAY       0800   75     350/  5     1016.0S
LAKE MURRAY      0900   74      CALM  /  2 1017.6S
ACE BASIN NERRS  0800   74        CALM     1017.0S
FORT PULASKI     0900   79 85   30/  9/ 11 1016.3F
SAPELO ISLAND    0900   76        CALM     1015.0S

$$

ANZ835-935-AMZ111-154-330-350-352-354-370-450-454-472-301000-
...C-MAN AND BUOY OBSERVATIONS...

STATION/POSITION TIME  TEMP    WIND        PRES    WAVE   SWELL
                       AIR SEA DIR/SP/G            HT/PER HT/PER/DIR
                 (UTC) (F)     (DEG/KT/KT) (MB)    (FT/S) (FT/S/D)
BUOY 41004       0850   82 85   20/ 10/ 12 1015.2S   3/12   3/110/12
BUOY 41008       0850   82 85  130/  8/ 10 1015.0F   4/12   3/100/12
FOLLY BEACH CMAN 0900   80      40/  8/  9 1016.4F
CAPERS NEARSHORE 0908   80 84   50/ 10/ 14 1015.9F
FRIPP NEARSHORE  0908   78 85  300/  6/  8 1015.3R


STATION/POSITION TIME  TEMP    WIND        PRES    WAVE   SWELL
                       AIR SEA DIR/SP/G            HT/PER HT/PER/DIR
                 (UTC) (F)     (DEG/KT/KT) (MB)    (FT/S) (FT/S/D)
5E ST. MARYS GA  0901      85                N/A     5/13   3/100/13
FRYING PAN BUOY  0900   82 85   10/ 14/ 17 1015.1F
BUOY 41025       0850   80 84   70/ 21/ 27 1014.6S   7/11   5/110/11
CAPE LOOKOUT NC  0900   78      10/ 13/ 17 1015.4S
BUOY 41002       0850   82 84  220/ 14/ 16 1014.7F   5/11   3/ 70/11
BUOY 41010       NOT AVBL
ST AUGUSTINE FL  0900   80 83  110/ 18/ 20 1015.1R


$$



USA.gov is the U.S. government's official web portal to all federal, state and local government web resources and services.